[[{"header":{"parameterUnit":"m.s-1","parameterCategory":1,"la1":30.2991,"la2":30.254,"lo1":-89.0895,"lo2":-89.0444,"dy":0.0017,"dx":0.0017,"nx":28,"ny":28,"refTime":"2025-06-21T03:00:00:Z","depth":0,"parameterNumber":2,"parameterNumberName":"U-component_of_WINDS"},"data":[0,0,0,0,0,0,0,0,0,0,0,0,0,0,0,0,0,0,0,0,0,0,0,0,0,0,0,0,0,0,0,0,0,0,0,0,0,0,0,0,0,0,0,0,0,0,0,0,0,0,0,0,0,0,0,0,0,0,1.7373,1.7373,0,1.7383,1.7383,1.7383,1.7361,1.736,1.736,1.7359,1.7368,1.7369,1.737,0,0,0,0,0,0,0,0,0,0,0,0,0,1.7329,1.733,1.7372,1.7373,1.7373,1.7383,1.7383,1.7383,1.7361,1.736,1.7359,1.7359,1.7368,1.7369,1.737,0,0,0,0,0,0,0,0,0,0,0,0,0,1.7345,1.7331,1.7372,1.7363,1.7362,1.7383,1.7383,1.7383,1.7361,1.736,1.7359,1.7358,1.7367,1.7369,1.737,1.74,0,0,1.7374,1.7375,0,0,0,0,0,0,0,0,1.7344,1.7347,1.7364,1.7364,1.7363,1.737,1.7371,1.7389,1.7362,1.7362,1.7359,1.7358,1.7369,1.737,1.7375,1.74,1.7401,1.7374,1.7375,1.7376,1.7376,0,0,0,0,0,0,0,1.7343,1.7346,1.7377,1.7364,1.7364,1.7357,1.7358,1.7375,1.7371,1.7362,1.736,1.7362,1.7369,1.7374,1.7375,1.7401,1.7374,1.7375,1.7376,1.7377,1.7448,1.7449,0,0,0,0,0,0,1.7344,1.7345,1.7376,1.7377,1.7351,1.7359,1.736,1.7369,1.7371,1.7371,1.7363,1.7361,1.7372,1.7373,1.7375,1.7408,1.7376,1.7377,1.7378,1.7447,1.7449,1.745,0,0,0,0,0,0,1.7343,1.7347,1.7376,1.7361,1.7364,1.7361,1.7371,1.7369,1.7374,1.7372,1.7371,1.7368,1.7371,1.7373,1.7393,1.7408,1.7378,1.7379,1.7446,1.7448,1.7449,1.7475,0,0,0,0,0,0,1.7342,1.7346,1.7359,1.7361,1.7365,1.7395,1.7372,1.737,1.7377,1.7374,1.7377,1.7376,1.737,1.7391,1.7395,1.7409,1.738,1.7445,1.7447,1.7449,1.7473,1.7478,1.7482,0,0,0,0,0,1.734,1.7366,1.736,1.7363,1.738,1.7396,1.7398,1.7391,1.7378,1.7389,1.7388,1.7376,1.7406,1.7394,1.7397,1.7412,1.7444,1.7446,1.7449,1.7471,1.7477,1.7482,0,0,0,0,0,0,1.7365,1.7366,1.7359,1.7387,1.7391,1.7392,1.7407,1.7398,1.7406,1.7403,1.7393,1.7394,1.7416,1.7416,1.7402,1.744,1.7423,1.7426,1.7439,1.7444,1.7448,1.7447,1.7381,0,0,0,0,0,1.7374,1.7388,1.7388,1.7412,1.7415,1.741,1.7417,1.7411,1.7415,1.7417,1.7417,1.7421,1.7431,1.7438,1.7447,1.7474,1.7472,1.7486,1.749,1.7493,1.7496,1.7507,1.7512,1.7458,1.7458,1.7458,0,0,1.7393,1.7395,1.7404,1.7417,1.742,1.7433,1.7412,1.7427,1.7436,1.7419,1.7438,1.7438,1.7441,1.7464,1.7474,1.7465,1.751,1.7496,1.7499,1.75,1.751,1.7515,1.7519,1.7459,1.7459,1.7459,0,0,1.7432,1.7436,1.7455,1.7458,1.7463,1.746,1.7464,1.7466,1.7465,1.7484,1.7471,1.7481,1.7499,1.7501,1.7505,1.7543,1.7531,1.7546,1.7567,1.7579,1.7583,1.7586,1.7598,1.7602,1.7549,1.7549,1.7549,0,1.7454,1.7473,1.7466,1.7481,1.7486,1.7472,1.749,1.7493,1.7501,1.7504,1.7494,1.7515,1.7517,1.7538,1.7547,1.7552,1.7555,1.7545,1.7583,1.7587,1.759,1.76,1.7605,1.755,1.755,1.755,1.755,0,1.7499,1.7512,1.7527,1.7534,1.7541,1.7558,1.7551,1.7559,1.7552,1.7549,1.7567,1.7568,1.7576,1.7581,1.7575,1.7602,1.7596,1.7585,1.7567,1.7597,1.7606,1.761,1.7553,1.7552,1.7552,1.7551,0,0,1.7555,1.7556,1.7561,1.7563,1.7566,1.7576,1.7591,1.7599,1.7605,1.761,1.7621,1.7636,1.7625,1.7629,1.7623,1.7633,1.7659,1.762,1.762,1.7625,1.7685,1.7692,1.7697,1.7653,1.7653,1.7654,1.7684,0,1.7591,1.7618,1.7611,1.7636,1.7647,1.7632,1.7645,1.7648,1.7645,1.7653,1.765,1.766,1.7646,1.7648,1.7657,1.7654,1.7671,1.7652,1.7661,1.7661,1.7658,1.7703,1.771,1.7739,1.7688,1.7689,1.7689,0,1.7638,1.7644,1.7671,1.767,1.7674,1.7686,1.7691,1.77,1.7701,1.7699,1.7702,1.7693,1.7706,1.7689,1.7706,1.7693,1.7696,1.7695,1.7696,1.7695,1.7676,1.7701,1.7748,1.7752,1.7696,1.7695,1.7695,0,1.7673,1.7688,1.7705,1.7707,1.7707,1.7715,1.7716,1.7716,1.7721,1.7725,1.7728,1.7734,1.7737,1.7741,1.7733,1.7722,1.775,1.7733,1.7746,1.7746,1.7752,1.7751,1.7798,1.7757,1.7757,1.7757,1.7757,0,1.7714,1.773,1.772,1.7731,1.7747,1.7739,1.7755,1.7754,1.7754,1.7763,1.7751,1.7759,1.775,1.7756,1.7751,1.7764,1.7766,1.7762,1.776,1.7762,1.7762,1.7763,1.776,1.7758,1.7758,1.7758,1.7758,0,1.7755,1.775,1.7767,1.7765,1.7764,1.7777,1.7774,1.7783,1.7779,1.779,1.7792,1.7786,1.7793,1.7786,1.7793,1.7789,1.7806,1.7802,1.7805,1.7803,1.7816,1.7814,1.7864,1.7869,1.7827,1.7827,1.7827,0,1.778,1.7792,1.7791,1.7796,1.7797,1.7805,1.7809,1.78,1.7805,1.7807,1.7814,1.7821,1.7825,1.7837,1.7832,1.7837,1.7832,1.7849,1.7832,1.7833,1.7829,1.7828,1.7828,1.7852,1.7852,1.7853,1.7853,0,1.7825,1.7821,1.7828,1.7833,1.7838,1.7841,1.7844,1.7848,1.7839,1.7845,1.7852,1.7855,1.7861,1.7867,1.787,1.7869,1.7859,1.7858,1.7861,1.7862,1.7863,1.786,1.7812,1.7857,1.7856,1.7856,1.7856,1.7856,1.7857,1.7866,1.7866,1.7873,1.7874,1.7876,1.7883,1.788,1.7886,1.789,1.7885,1.7893,1.7892,1.7895,1.7895,1.79,1.7893,1.7898,1.7899,1.79,1.79,1.7864,1.7901,1.7901,1.7901,1.7901,1.7901,0,1.7899,1.7898,1.7905,1.7908,1.7913,1.7903,1.7905,1.791,1.7917,1.7917,1.7921,1.7928,1.7933,1.7929,1.7932,1.7937,1.7932,1.7938,1.7937,1.7936,1.7908,1.7904,1.7942,1.7942,1.7942,1.7942,1.7942,1.7942,1.7922,1.7935,1.7931,1.7944,1.7943,1.795,1.7952,1.7953,1.7953,1.7961,1.7965,1.7962,1.796,1.7963,1.7967,1.7965,1.7966,1.7973,1.797,1.7943,1.7939,1.7935,1.7931,1.7974,1.7974,1.7997,1.7997,1.7998]},{"header":{"parameterUnit":"m.s-1","parameterCategory":1,"la1":30.2991,"la2":30.254,"lo1":-89.0895,"lo2":-89.0444,"dy":0.0017,"dx":0.0017,"nx":28,"ny":28,"refTime":"2025-06-21T03:00:00:Z","depth":0,"parameterNumber":3,"parameterNumberName":"V-component_of_WINDS"},"data":[0,0,0,0,0,0,0,0,0,0,0,0,0,0,0,0,0,0,0,0,0,0,0,0,0,0,0,0,0,0,0,0,0,0,0,0,0,0,0,0,0,0,0,0,0,0,0,0,0,0,0,0,0,0,0,0,0,0,2.0839,2.084,0,2.0867,2.0867,2.0867,2.084,2.0839,2.0838,2.0837,2.0864,2.0865,2.0867,0,0,0,0,0,0,0,0,0,0,0,0,0,2.0761,2.0763,2.0839,2.084,2.084,2.0866,2.0867,2.0867,2.0841,2.0839,2.0838,2.0837,2.0863,2.0865,2.0867,0,0,0,0,0,0,0,0,0,0,0,0,0,2.0792,2.0763,2.0839,2.083,2.0829,2.0866,2.0867,2.0867,2.0841,2.0839,2.0838,2.0836,2.0862,2.0865,2.0867,2.0914,0,0,2.0875,2.0876,0,0,0,0,0,0,0,0,2.0791,2.0795,2.0831,2.0831,2.083,2.0849,2.0849,2.0883,2.0841,2.0836,2.0837,2.0836,2.086,2.0862,2.0871,2.0916,2.0917,2.0875,2.0877,2.0878,2.0879,0,0,0,0,0,0,0,2.0789,2.0794,2.085,2.0831,2.0831,2.0823,2.0826,2.0855,2.0857,2.0837,2.0835,2.0839,2.0859,2.0869,2.0871,2.0917,2.0875,2.0877,2.0879,2.088,2.1,2.1001,0,0,0,0,0,0,2.0788,2.0792,2.0849,2.0851,2.0806,2.0826,2.0829,2.0844,2.0856,2.0857,2.084,2.0837,2.0865,2.0868,2.0872,2.0927,2.0878,2.088,2.0882,2.0998,2.1,2.1002,0,0,0,0,0,0,2.0786,2.0793,2.0848,2.0821,2.0828,2.0829,2.0846,2.0846,2.0855,2.0859,2.0858,2.0849,2.0864,2.0869,2.0904,2.0927,2.0881,2.0884,2.0996,2.0999,2.1001,2.1037,0,0,0,0,0,0,2.0784,2.0793,2.0811,2.0822,2.0829,2.088,2.0848,2.0847,2.0859,2.0856,2.0867,2.0868,2.0863,2.09,2.0906,2.093,2.0886,2.0994,2.0997,2.1,2.1033,2.104,2.1046,0,0,0,0,0,2.0781,2.082,2.0812,2.0819,2.0853,2.0881,2.0886,2.088,2.0862,2.088,2.0882,2.0867,2.0924,2.0904,2.0911,2.0935,2.0992,2.0996,2.1,2.1031,2.1039,2.1046,0,0,0,0,0,0,2.0813,2.0822,2.0813,2.0857,2.0869,2.0877,2.09,2.0889,2.0906,2.0902,2.0894,2.0896,2.0933,2.0938,2.0916,2.098,2.0955,2.096,2.0976,2.0984,2.099,2.0988,2.0888,0,0,0,0,0,2.0825,2.0848,2.0855,2.0892,2.0899,2.0898,2.0911,2.0905,2.0917,2.0922,2.0926,2.0938,2.0958,2.0971,2.099,2.1034,2.1035,2.1054,2.106,2.1065,2.107,2.1092,2.11,2.1014,2.1014,2.1014,0,0,2.085,2.0857,2.0873,2.0899,2.0907,2.0931,2.0903,2.0929,2.0946,2.0925,2.0959,2.0963,2.0974,2.1014,2.1031,2.1019,2.1094,2.107,2.1074,2.1076,2.1096,2.1104,2.1112,2.1017,2.1016,2.1016,0,0,2.0907,2.0916,2.0947,2.0956,2.097,2.0969,2.0976,2.0986,2.0988,2.1021,2.1006,2.1025,2.1061,2.1069,2.1078,2.1137,2.1124,2.1144,2.1176,2.1197,2.1204,2.121,2.1229,2.1237,2.1148,2.1148,2.1148,0,2.0936,2.0971,2.0965,2.0992,2.1003,2.0986,2.1017,2.1026,2.1044,2.1052,2.1038,2.108,2.1088,2.1128,2.1142,2.115,2.1158,2.1142,2.1204,2.121,2.1215,2.1233,2.1241,2.115,2.115,2.115,2.115,0,2.1005,2.103,2.1054,2.1072,2.1086,2.1115,2.1112,2.1127,2.112,2.112,2.1153,2.1161,2.118,2.119,2.1183,2.1229,2.122,2.1205,2.1179,2.1225,2.1242,2.125,2.1154,2.1153,2.1152,2.1152,0,0,2.1083,2.1097,2.1106,2.1113,2.1126,2.1144,2.1172,2.1191,2.1203,2.1216,2.1238,2.1268,2.1253,2.1263,2.1258,2.1277,2.1321,2.1259,2.1259,2.1269,2.1369,2.138,2.1388,2.1313,2.1314,2.1315,2.1368,0,2.114,2.1188,2.1182,2.1228,2.125,2.1233,2.1257,2.1266,2.1267,2.1285,2.1286,2.1306,2.1287,2.1292,2.1311,2.1312,2.1341,2.1308,2.1331,2.1332,2.1328,2.1398,2.1409,2.1459,2.1375,2.1376,2.1377,0,2.1212,2.1227,2.1275,2.1283,2.1292,2.1314,2.133,2.1347,2.1357,2.1356,2.1368,2.1358,2.1384,2.1359,2.1394,2.1372,2.1381,2.1383,2.1385,2.1386,2.1357,2.1399,2.1475,2.1481,2.1388,2.1387,2.1386,0,2.1262,2.1295,2.1327,2.1334,2.1345,2.136,2.1365,2.1373,2.1385,2.1399,2.1405,2.1422,2.1431,2.1444,2.1439,2.1421,2.1475,2.1449,2.1474,2.1474,2.1485,2.1484,2.1562,2.1493,2.1493,2.1493,2.1493,0,2.1325,2.1354,2.1349,2.1369,2.1401,2.1394,2.1426,2.1429,2.1436,2.1455,2.1442,2.146,2.1453,2.147,2.1467,2.1495,2.15,2.1499,2.1497,2.15,2.1499,2.1505,2.1501,2.1495,2.1494,2.1494,2.1494,0,2.1386,2.1384,2.1418,2.1425,2.1427,2.145,2.1456,2.1474,2.1473,2.1497,2.1503,2.1502,2.1521,2.1518,2.154,2.1537,2.1572,2.1567,2.1569,2.1567,2.1592,2.1589,2.1674,2.1684,2.1611,2.1611,2.1612,0,2.1426,2.1448,2.1457,2.1469,2.1475,2.1494,2.1506,2.1499,2.1511,2.1524,2.154,2.1558,2.1572,2.1604,2.1605,2.1621,2.1616,2.1644,2.1618,2.1619,2.1614,2.1612,2.1614,2.1649,2.165,2.1651,2.1651,0,2.1496,2.1493,2.151,2.1527,2.154,2.1553,2.1564,2.1574,2.1569,2.1583,2.1603,2.1614,2.1635,2.1653,2.1668,2.1672,2.166,2.166,2.1666,2.1668,2.1667,2.1666,2.1582,2.1658,2.1657,2.1657,2.1656,2.1656,2.1546,2.1564,2.1573,2.1592,2.16,2.161,2.1627,2.1628,2.1645,2.1662,2.1657,2.1679,2.1687,2.1706,2.1712,2.1728,2.1718,2.1727,2.1729,2.1731,2.1734,2.1666,2.1731,2.1731,2.1731,2.1731,2.1731,0,2.1614,2.1619,2.1636,2.1652,2.1666,2.1654,2.1666,2.1678,2.1698,2.1707,2.1721,2.1743,2.176,2.1762,2.1778,2.1791,2.1786,2.1795,2.1793,2.1794,2.1743,2.1736,2.1799,2.1799,2.1799,2.1799,2.1799,2.1799,2.1651,2.1681,2.1679,2.1712,2.1716,2.1738,2.1745,2.1754,2.1761,2.1786,2.18,2.1802,2.1807,2.1823,2.1838,2.1838,2.1844,2.1855,2.1853,2.1805,2.1798,2.1792,2.1784,2.1857,2.1857,2.1902,2.1903,2.1903]}]]